CW8504 Weather Reports


time (UTC)temp
C
wind
direction
speed
KPH
gust
KPH
rain 1hr
cm
rain 24hr
cm
rain mn
cm
humidity
%
barometer
mb
20260508190907 18 231 8.0 16.1 0.00 0.00 0.00 17 1016.2
20260508190404 18 227 1.6 19.3 0.00 0.00 0.00 19 1016.3
20260508185904 18 244 3.2 9.7 0.00 0.00 0.00 18 1016.3
20260508185404 18 220 1.6 12.9 0.00 0.00 0.00 18 1016.3
20260508184904 18 228 11.3 19.3 0.00 0.00 0.00 18 1016.4
20260508184404 18 214 6.4 14.5 0.00 0.00 0.00 17 1016.3
20260508183904 18 218 9.7 19.3 0.00 0.00 0.00 17 1016.3
20260508183404 19 235 9.7 20.9 0.00 0.00 0.00 17 1016.4
20260508182407 19 212 8.0 16.1 0.00 0.00 0.00 17 1016.4
20260508180404 18 198 1.6 8.0 0.00 0.00 0.00 17 1016.7
20260508175904 19 271 1.6 9.7 0.00 0.00 0.00 18 1016.7
20260508175404 18 11 0.0 4.8 0.00 0.00 0.00 17 1016.7
20260508174404 18 268 0.0 4.8 0.00 0.00 0.00 19 1016.7
20260508173904 18 180 0.0 3.2 0.00 0.00 0.00 21 1016.8
20260508173404 18 210 0.0 4.8 0.00 0.00 0.00 20 1016.8
20260508172905 18 233 6.4 9.7 0.00 0.00 0.00 20 1016.9
20260508172403 18 256 0.0 4.8 0.00 0.00 0.00 21 1017.0
20260508171911 17 224 0.0 9.7 0.00 0.00 0.00 22 1017.1
20260508171404 17 228 0.0 0.0 0.00 0.00 0.00 22 1017.1
20260508170904 17 228 0.0 0.0 0.00 0.00 0.00 23 1017.2
20260508170403 17 230 0.0 0.0 0.00 0.00 0.00 25 1017.2
20260508165404 16 247 0.0 0.0 0.00 0.00 0.00 26 1017.2
20260508164907 16 28 0.0 0.0 0.00 0.00 0.00 31 1017.2
20260508163904 15 28 0.0 0.0 0.00 0.00 0.00 32 1017.3
20260508163404 15 30 0.0 0.0 0.00 0.00 0.00 33 1017.3
20260508162904 15 30 0.0 0.0 0.00 0.00 0.00 32 1017.4
20260508162404 15 30 0.0 0.0 0.00 0.00 0.00 33 1017.5
20260508161904 15 30 0.0 0.0 0.00 0.00 0.00 36 1017.6
20260508161404 14 30 0.0 0.0 0.00 0.00 0.00 35 1017.5
20260508160904 13 30 0.0 0.0 0.00 0.00 0.00 36 1017.6
20260508160404 13 30 0.0 0.0 0.00 0.00 0.00 38 1017.6
20260508155904 13 30 0.0 0.0 0.00 0.00 0.00 40 1017.7
20260508155404 13 30 0.0 0.0 0.00 0.00 0.00 39 1017.7
20260508154405 12 30 0.0 0.0 0.00 0.00 0.00 43 1017.8
20260508153904 12 30 0.0 0.0 0.00 0.00 0.00 43 1018.0
20260508153404 11 30 0.0 0.0 0.00 0.00 0.00 44 1017.9
20260508152404 10 30 0.0 0.0 0.00 0.00 0.00 46 1018.0
20260508151904 10 30 0.0 0.0 0.00 0.00 0.00 46 1018.1
20260508151404 9 30 0.0 0.0 0.00 0.00 0.00 47 1018.1
20260508150904 8 30 0.0 0.0 0.00 0.00 0.00 49 1018.2
20260508150404 8 30 0.0 0.0 0.00 0.00 0.00 50 1018.1
20260508145404 7 30 0.0 0.0 0.00 0.00 0.00 56 1018.2
20260508144904 6 30 0.0 0.0 0.00 0.00 0.00 58 1018.3
20260508144404 6 36 0.0 0.0 0.00 0.00 0.00 62 1018.3
20260508143404 4 194 0.0 0.0 0.00 0.00 0.00 65 1018.4
20260508142904 4 194 0.0 0.0 0.00 0.00 0.00 67 1018.5
20260508142404 3 194 0.0 0.0 0.00 0.00 0.00 68 1018.5
20260508141904 3 196 0.0 0.0 0.00 0.00 0.00 69 1018.6
20260508141404 3 196 0.0 0.0 0.00 0.00 0.00 69 1018.5
20260508140905 3 196 0.0 0.0 0.00 0.00 0.00 71 1018.5
20260508140404 3 196 0.0 0.0 0.00 0.00 0.00 72 1018.6
20260508135404 2 196 0.0 0.0 0.00 0.00 0.00 74 1018.7
20260508134904 2 196 0.0 0.0 0.00 0.00 0.00 75 1018.6
20260508134404 2 196 0.0 0.0 0.00 0.00 0.00 75 1018.7
20260508133404 1 202 0.0 0.0 0.00 0.00 0.00 76 1018.6
20260508132904 1 202 0.0 0.0 0.00 0.00 0.00 76 1018.6
20260508132404 0 202 0.0 0.0 0.00 0.00 0.00 76 1018.6
20260508131404 0 202 0.0 0.0 0.00 0.00 0.00 76 1018.6
20260508130904 0 204 0.0 0.0 0.00 0.00 0.00 75 1018.5
20260508130404 0 205 0.0 0.0 0.00 0.00 0.00 74 1018.5
20260508125911 0 204 0.0 0.0 0.00 0.00 0.00 75 1018.4
20260508125404 0 204 0.0 0.0 0.00 0.00 0.00 74 1018.3
20260508124904 0 204 0.0 0.0 0.00 0.00 0.00 74 1018.3
20260508124404 0 204 0.0 0.0 0.00 0.00 0.00 74 1018.2
20260508123904 0 204 0.0 0.0 0.00 0.00 0.00 74 1018.2
20260508123404 0 204 0.0 0.0 0.00 0.00 0.00 74 1018.2
20260508122904 0 204 0.0 0.0 0.00 0.00 0.00 74 1018.2
20260508122404 0 204 0.0 0.0 0.00 0.00 0.00 74 1018.1
20260508121904 0 204 0.0 0.0 0.00 0.00 0.00 73 1018.0
20260508121404 0 204 0.0 0.0 0.00 0.00 0.00 73 1017.9
20260508120904 0 204 0.0 0.0 0.00 0.00 0.00 73 1017.9
20260508120404 0 204 0.0 0.0 0.00 0.00 0.00 73 1017.8
20260508115904 0 204 0.0 0.0 0.00 0.00 0.00 73 1017.8
20260508115404 0 204 0.0 0.0 0.00 0.00 0.00 73 1017.8
20260508114904 0 204 0.0 0.0 0.00 0.00 0.00 73 1017.7
20260508114404 0 204 0.0 0.0 0.00 0.00 0.00 73 1017.7
20260508113404 0 204 0.0 0.0 0.00 0.00 0.00 74 1017.7
20260508112904 0 204 0.0 0.0 0.00 0.00 0.00 74 1017.6
20260508111905 0 246 0.0 0.0 0.00 0.00 0.00 73 1017.8
20260508111404 0 246 0.0 0.0 0.00 0.00 0.00 73 1017.8
20260508110904 0 246 0.0 0.0 0.00 0.00 0.00 73 1017.7
20260508110404 0 246 0.0 0.0 0.00 0.00 0.00 73 1017.8
20260508105904 0 246 0.0 0.0 0.00 0.00 0.00 73 1017.7
20260508105407 0 245 0.0 0.0 0.00 0.00 0.00 73 1017.7
20260508104904 0 245 0.0 0.0 0.00 0.00 0.00 73 1017.6
20260508104404 1 242 0.0 0.0 0.00 0.00 0.00 72 1017.6
20260508103905 1 242 0.0 0.0 0.00 0.00 0.00 72 1017.5
20260508102404 1 242 0.0 0.0 0.00 0.00 0.00 72 1017.5
20260508101904 1 242 0.0 0.0 0.00 0.00 0.00 71 1017.5
20260508100404 1 242 0.0 0.0 0.00 0.00 0.00 71 1017.4
20260508095904 1 242 0.0 0.0 0.00 0.00 0.00 70 1017.3
20260508095404 1 242 0.0 0.0 0.00 0.00 0.00 70 1017.3
20260508094904 1 242 0.0 0.0 0.00 0.00 0.00 71 1017.3
20260508094404 1 242 0.0 0.0 0.00 0.00 0.00 71 1017.2
20260508093904 1 242 0.0 0.0 0.00 0.00 0.00 70 1017.2
20260508092404 2 242 0.0 0.0 0.00 0.00 0.00 70 1017.2
20260508090904 2 242 0.0 0.0 0.00 0.00 0.00 67 1017.0
20260508090404 2 242 0.0 0.0 0.00 0.00 0.00 67 1017.1
20260508085904 2 242 0.0 0.0 0.00 0.00 0.00 67 1016.8
20260508085404 2 242 0.0 0.0 0.00 0.00 0.00 67 1016.8
20260508084904 2 242 0.0 0.0 0.00 0.00 0.00 66 1016.8
20260508084404 3 242 0.0 0.0 0.00 0.00 0.00 65 1016.8
20260508083904 3 242 0.0 0.0 0.00 0.00 0.00 65 1016.7
20260508083404 3 242 0.0 0.0 0.00 0.00 0.00 65 1016.7
20260508082904 3 242 0.0 0.0 0.00 0.00 0.00 64 1016.7
20260508082404 3 242 0.0 0.0 0.00 0.00 0.00 64 1016.7
20260508081904 3 242 0.0 0.0 0.00 0.00 0.00 64 1016.6
20260508080903 4 242 0.0 0.0 0.00 0.00 0.00 62 1016.6
20260508075904 5 242 0.0 0.0 0.00 0.00 0.00 62 1016.5
20260508075404 5 242 0.0 0.0 0.00 0.00 0.00 61 1016.5
20260508074904 5 242 0.0 0.0 0.00 0.00 0.00 61 1016.5
20260508074404 5 242 0.0 0.0 0.00 0.00 0.00 61 1016.4
20260508073905 5 242 0.0 0.0 0.00 0.00 0.00 61 1016.4
20260508073407 5 242 0.0 0.0 0.00 0.00 0.00 59 1016.4
20260508072904 5 242 0.0 0.0 0.00 0.00 0.00 57 1016.3
20260508072404 5 242 0.0 0.0 0.00 0.00 0.00 57 1016.3
20260508071904 6 242 0.0 0.0 0.00 0.00 0.00 57 1016.3
20260508070904 6 242 0.0 0.0 0.00 0.00 0.00 56 1016.3
20260508070404 6 242 0.0 0.0 0.00 0.00 0.00 56 1016.3
20260508065905 6 242 0.0 0.0 0.00 0.00 0.00 56 1016.3
20260508065404 7 242 0.0 0.0 0.00 0.00 0.00 57 1016.3
20260508064903 7 242 0.0 0.0 0.00 0.00 0.00 56 1016.3
20260508064404 7 242 0.0 0.0 0.00 0.00 0.00 56 1016.2
20260508063904 7 242 0.0 0.0 0.00 0.00 0.00 54 1016.2
20260508063404 7 242 0.0 0.0 0.00 0.00 0.00 53 1016.2
20260508062903 7 242 0.0 0.0 0.00 0.00 0.00 53 1016.2
20260508062404 7 242 0.0 0.0 0.00 0.00 0.00 53 1016.2
20260508061404 8 242 0.0 0.0 0.00 0.00 0.00 53 1016.1
20260508060904 8 242 0.0 0.0 0.00 0.00 0.00 52 1016.1
20260508060404 8 242 0.0 0.0 0.00 0.00 0.00 52 1016.0
20260508055905 8 242 0.0 0.0 0.00 0.00 0.00 52 1016.0
20260508055404 8 243 0.0 0.0 0.00 0.00 0.00 52 1016.1
20260508054904 8 243 0.0 0.0 0.00 0.00 0.00 52 1016.1
20260508053404 8 243 0.0 0.0 0.00 0.00 0.00 51 1016.0
20260508052904 8 244 0.0 0.0 0.00 0.00 0.00 51 1015.9
20260508052404 9 243 0.0 0.0 0.00 0.00 0.00 51 1016.0
20260508051405 9 278 0.0 0.0 0.00 0.00 0.00 50 1016.0
20260508050904 9 278 0.0 0.0 0.00 0.00 0.00 50 1016.0
20260508045904 10 278 0.0 0.0 0.00 0.00 0.00 49 1015.9
20260508045404 10 278 0.0 0.0 0.00 0.00 0.00 49 1016.0
20260508044904 10 278 0.0 0.0 0.00 0.00 0.00 49 1016.0
20260508044404 10 278 0.0 0.0 0.00 0.00 0.00 48 1016.0
20260508043903 10 278 0.0 0.0 0.00 0.00 0.00 48 1016.0
20260508043405 10 278 0.0 0.0 0.00 0.00 0.00 48 1016.1
20260508042904 10 278 0.0 0.0 0.00 0.00 0.00 48 1016.0
20260508042404 10 278 0.0 0.0 0.00 0.00 0.00 48 1016.0
20260508041904 10 278 0.0 0.0 0.00 0.00 0.00 47 1016.0
20260508041403 10 278 0.0 0.0 0.00 0.00 0.00 46 1015.9
20260508040404 10 278 0.0 0.0 0.00 0.00 0.00 46 1015.9
20260508035404 11 279 0.0 0.0 0.00 0.00 0.00 47 1015.9
20260508034905 11 279 0.0 0.0 0.00 0.00 0.00 47 1015.8
20260508034404 11 279 0.0 0.0 0.00 0.00 0.00 45 1015.8
20260508033404 11 279 0.0 0.0 0.00 0.00 0.00 43 1015.6
20260508032904 12 279 0.0 0.0 0.00 0.00 0.00 43 1015.6
20260508032404 12 279 0.0 0.0 0.00 0.00 0.00 43 1015.6
20260508031404 12 279 0.0 0.0 0.00 0.00 0.00 41 1015.4
20260508030904 12 279 0.0 0.0 0.00 0.00 0.00 40 1015.4
20260508030404 12 279 0.0 0.0 0.00 0.00 0.00 39 1015.4
20260508025904 12 279 0.0 0.0 0.00 0.00 0.00 39 1015.3
20260508025403 13 279 0.0 0.0 0.00 0.00 0.00 38 1015.2
20260508024904 13 279 0.0 0.0 0.00 0.00 0.00 39 1015.2
20260508024404 13 279 0.0 0.0 0.00 0.00 0.00 38 1015.2
20260508023404 13 279 0.0 0.0 0.00 0.00 0.00 37 1015.1
20260508022904 13 279 0.0 0.0 0.00 0.00 0.00 35 1015.0
20260508022404 13 262 0.0 0.0 0.00 0.00 0.00 40 1014.9
20260508021904 13 262 0.0 0.0 0.00 0.00 0.00 36 1014.8
20260508021404 14 262 0.0 0.0 0.00 0.00 0.00 34 1014.7
20260508020404 14 262 0.0 0.0 0.00 0.00 0.00 32 1014.7
20260508015904 15 262 0.0 0.0 0.00 0.00 0.00 34 1014.6
20260508015403 15 262 0.0 0.0 0.00 0.00 0.00 29 1014.7
20260508014904 15 262 0.0 0.0 0.00 0.00 0.00 29 1014.7
20260508014404 15 262 0.0 0.0 0.00 0.00 0.00 30 1014.5
20260508013903 15 262 0.0 0.0 0.00 0.00 0.00 29 1014.6
20260508013403 15 262 0.0 0.0 0.00 0.00 0.00 27 1014.6
20260508012903 15 261 0.0 0.0 0.00 0.00 0.00 27 1014.5
20260508010904 16 255 0.0 0.0 0.00 0.00 0.00 25 1014.5
20260508010403 16 281 0.0 0.0 0.00 0.00 0.00 24 1014.5